sat.trackr.live / text

‹ back to catalog

STARLINK-32891

NORAD 62927 · 2025-027W

PAYLOAD ACTIVE UNKNOWN

§ Identity

Operator
Country
US
Launch date
2025-02-08
Launch site
AFETR
Launch vehicle
Mass (kg)
RCS (m²)

Purposes: comms

External: N2YO · Heavens-Above · Gunter

§ Orbital elements

Epoch: 2026-09-20T07:21:38.244096Z

Period
94.27 min
Inclination
43.0006°
Eccentricity
0.0000757
Mean motion
15.27586519 rev/d
Perigee alt
482.5 km
Apogee alt
483.5 km
Semi-major
6,861.2 km
B*
4.0050e-4
RAAN
110.0167°
Arg perigee
283.5797°
Mean anomaly
76.4970°
Rev number
9,142

§ Raw data

STARLINK-328911 62927U 25027W   26263.30669264  .00010777  00000+0  40050-3 0  99902 62927  43.0006 110.0167 0000757 283.5797  76.4970 15.27586519 91425

JSON: /api/v1/satellites/62927 · /tle

For live sub-satellite position, see the globe view (requires WebGL).

§ Visibility from observer

Set your observer location to see the next 7 days of passes ≥ 10°. The values pass through the URL so the page stays shareable.

No JS? Fill the form by hand. The geolocation button needs JavaScript.